Total_Precipitation_Accumulation
10.73 9.55 7.17 5.94 6.78 5.98 3.58 2.63 1.74 1.50 1.48 1.79 1.43 2.21 1.72 1.28 1.40 1.61 0.78 0.42 0.62 0.48 0.33 0.54 0.22 0.24 0.21 0.19 0.11 0.10 0.22 0.46
3.98 4.09 3.32 2.93 3.65 4.60 4.44 3.05 2.55 2.21 1.49 1.61 1.74 1.69 1.59 1.43 1.46 1.68 1.33 0.59 0.52 0.52 0.69 0.52 0.57 0.39 0.22 0.26 0.30 0.29 0.18 0.57
1.69 1.30 0.90 0.88 1.34 2.08 2.81 2.59 2.65 2.61 2.12 1.37 2.08 2.20 1.31 1.60 1.83 1.64 1.13 0.61 0.56 0.59 0.57 0.61 0.59 0.63 0.65 0.64 0.46 0.21 0.31 0.38
0.51 0.41 0.33 0.30 0.30 0.47 0.80 1.57 2.31 2.35 2.90 1.66 1.55 2.43 1.42 1.50 1.89 1.38 1.16 0.76 0.54 0.56 0.52 0.56 0.54 0.44 0.59 0.52 0.25 0.19 0.31 0.56
0.28 0.50 0.51 0.25 0.26 0.24 0.32 0.77 1.56 1.62 2.61 2.26 1.00 1.45 1.74 1.82 2.22 1.40 0.98 0.93 0.74 0.65 0.38 0.32 0.27 0.29 0.34 0.38 0.41 0.42 0.52 0.53
0.12 0.18 0.27 0.29 0.28 0.27 0.29 0.56 0.98 1.02 1.39 2.46 1.26 1.17 1.35 1.57 1.64 1.25 0.66 0.60 0.57 0.61 0.46 0.40 0.38 0.43 0.38 0.37 0.48 0.77 0.89 1.14
0.20 0.21 0.39 0.49 0.49 0.37 0.30 0.79 0.95 0.87 0.90 1.28 1.26 1.16 1.01 1.39 1.18 1.44 0.80 0.57 0.47 0.50 0.40 0.35 0.32 0.35 0.25 0.32 0.43 0.72 1.30 1.06
0.28 0.29 0.47 0.37 0.50 0.58 0.67 0.83 0.95 0.82 0.74 0.91 0.96 1.11 1.10 1.30 1.21 1.14 1.04 1.02 0.54 0.49 0.46 0.27 0.30 0.35 0.39 0.27 0.29 0.34 0.54 0.58
0.42 0.65 0.56 0.29 0.26 0.31 0.66 1.07 0.89 0.78 0.79 0.83 0.87 0.86 0.94 1.03 1.14 1.05 0.90 1.29 0.85 0.59 0.65 0.63 0.46 0.31 0.33 0.36 0.38 0.24 0.16 0.18
0.43 0.61 0.58 0.51 0.33 0.46 0.49 0.86 1.10 0.93 0.71 0.76 1.06 1.01 0.94 0.86 1.04 0.85 1.06 1.03 0.85 0.72 0.90 0.89 0.76 0.40 0.37 0.36 0.43 0.40 0.33 0.25
0.62 0.82 0.83 0.78 0.69 0.73 1.01 0.97 0.96 0.77 0.77 0.69 0.68 0.74 0.97 0.90 0.90 1.00 1.21 1.32 1.19 1.22 1.14 1.09 0.86 0.67 0.43 0.31 0.35 0.35 0.24 0.25
0.74 0.92 1.16 1.30 1.14 1.06 0.89 0.81 0.73 0.71 0.63 0.70 0.82 0.85 0.82 0.96 0.87 0.83 1.07 1.39 1.10 1.04 0.93 1.00 0.97 0.96 0.82 0.78 0.71 0.66 0.51 0.40
0.74 0.90 1.20 1.16 0.66 0.53 0.57 0.57 0.45 0.59 0.60 0.68 0.86 1.09 1.12 1.01 0.89 0.87 0.98 1.02 1.02 1.30 1.55 1.74 1.55 1.25 1.19 1.03 0.72 0.62 0.53 0.37
0.62 0.49 0.35 0.21 0.18 0.29 0.42 0.51 0.52 0.48 0.57 0.74 0.69 1.02 1.05 0.88 0.87 0.87 1.00 1.13 1.05 0.91 1.05 1.20 1.18 1.10 1.06 1.07 1.01 0.86 0.62 0.42
0.14 0.11 0.09 0.13 0.16 0.38 0.61 0.91 0.84 0.69 0.60 0.60 0.75 0.96 1.15 1.06 0.92 0.82 0.81 1.23 1.50 1.26 1.21 1.28 1.19 1.17 1.19 1.25 1.13 0.89 0.60 0.60
0.15 0.15 0.17 0.26 0.30 0.40 0.54 0.54 0.42 0.28 0.31 0.41 0.51 0.86 1.21 1.03 1.37 1.50 1.35 1.16 1.31 1.67 1.75 1.64 1.87 1.79 2.16 1.98 1.63 1.60 1.57 1.38
0.18 0.17 0.21 0.32 0.38 0.43 0.76 0.83 0.86 0.88 1.02 1.14 1.21 1.37 1.68 1.68 1.62 2.13 2.12 1.89 1.54 1.93 2.73 3.13 3.03 3.46 3.45 3.09 3.10 2.67 2.15 2.11
0.15 0.27 0.43 0.74 0.99 1.15 1.32 1.55 1.61 1.56 1.55 1.52 1.59 1.79 2.20 2.33 2.56 2.56 3.02 3.04 2.74 2.51 2.86 3.55 4.00 3.77 3.28 3.32 3.18 2.91 2.41 3.24
0.42 0.90 1.26 1.28 1.27 1.20 1.17 1.27 1.35 0.98 0.78 0.79 0.83 1.03 1.07 1.16 1.54 1.75 1.93 2.34 2.36 2.83 3.18 2.93 2.78 2.99 3.50 3.68 3.88 3.56 3.41 3.36
0.91 0.94 0.83 0.72 0.78 0.84 0.99 0.96 1.03 0.86 0.67 0.77 0.67 0.64 0.68 0.89 1.15 1.54 1.64 2.11 2.47 2.33 2.33 2.66 3.03 3.08 3.11 3.41 3.36 3.16 3.36 3.26